DHK1914 FZAA-DGAA

Flight info

Callsign DHK1914
Flight time 2h 34m
Altitude 34000
Route BZ UG856 LV UB600 KINBU UR983 EBUSO DCT EREKA EREKA1B
Aircraft B77L/H-SDE1E2E3FGHIJ2J3J4J5M1RWXY/LB1D1

Departure

Time 2026-05-07 19:46
Airport Ndjili International Airport (FZAA)

Arrival

Time 2026-05-07 22:20
Airport Kotoka International Airport (DGAA)
Time Latitude Longitude Altitude Speed Heading
2026-05-07 19:23 -4.38832 15.44490 1037 ft 0 kts 147°
2026-05-07 19:40 -4.38834 15.44492 1037 ft 1 kts 140°
2026-05-07 19:41 -4.38835 15.44505 1037 ft 2 kts 83°
2026-05-07 19:41 -4.38815 15.44517 1037 ft 5 kts 25°
2026-05-07 19:41 -4.38767 15.44534 1037 ft 9 kts 15°
2026-05-07 19:41 -4.38712 15.44572 1037 ft 11 kts 56°
2026-05-07 19:42 -4.38664 15.44646 1038 ft 14 kts 57°
2026-05-07 19:42 -4.38601 15.44743 1036 ft 19 kts 57°
2026-05-07 19:42 -4.38529 15.44856 1032 ft 15 kts 57°
2026-05-07 19:42 -4.38485 15.44916 1032 ft 7 kts 37°
2026-05-07 19:43 -4.38443 15.44908 1033 ft 7 kts 325°
2026-05-07 19:43 -4.38432 15.44901 1033 ft 1 kts 329°
2026-05-07 19:43 -4.38428 15.44899 1031 ft 1 kts 329°
2026-05-07 19:43 -4.38424 15.44896 1033 ft 1 kts 329°
2026-05-07 19:44 -4.38420 15.44894 1033 ft 1 kts 329°
2026-05-07 19:44 -4.38412 15.44889 1033 ft 4 kts 329°
2026-05-07 19:44 -4.38377 15.44869 1033 ft 6 kts 332°
2026-05-07 19:44 -4.38336 15.44853 1033 ft 6 kts 337°
2026-05-07 19:45 -4.38327 15.44825 1033 ft 3 kts 245°
2026-05-07 19:45 -4.38329 15.44822 1033 ft 0 kts 239°
2026-05-07 19:45 -4.38370 15.44751 1033 ft 44 kts 239°
2026-05-07 19:45 -4.38711 15.44224 1034 ft 135 kts 237°
2026-05-07 19:46 -4.39359 15.43223 1085 ft 204 kts 237°
2026-05-07 19:46 -4.40026 15.41997 2033 ft 196 kts 242°
2026-05-07 19:46 -4.40757 15.40841 3016 ft 198 kts 235°
2026-05-07 19:46 -4.41596 15.39654 3480 ft 222 kts 236°
2026-05-07 19:47 -4.42538 15.38296 3766 ft 254 kts 236°
2026-05-07 19:47 -4.43549 15.36767 4455 ft 265 kts 237°
2026-05-07 19:47 -4.44545 15.35240 5615 ft 262 kts 237°
2026-05-07 19:47 -4.45562 15.33677 6422 ft 273 kts 237°
2026-05-07 19:48 -4.46611 15.32070 7284 ft 280 kts 237°
2026-05-07 19:48 -4.47694 15.30409 8101 ft 288 kts 237°
2026-05-07 19:48 -4.48798 15.28721 8996 ft 292 kts 237°
2026-05-07 19:48 -4.49917 15.27008 9857 ft 296 kts 237°
2026-05-07 19:49 -4.51048 15.25259 10604 ft 302 kts 240°
2026-05-07 19:49 -4.51744 15.23211 10812 ft 326 kts 268°
2026-05-07 19:49 -4.51326 15.20912 11022 ft 350 kts 296°
2026-05-07 19:49 -4.49807 15.18936 11299 ft 369 kts 320°
2026-05-07 19:50 -4.47738 15.17334 11784 ft 381 kts 323°
2026-05-07 19:50 -4.45650 15.15662 12542 ft 388 kts 321°
2026-05-07 19:50 -4.43497 15.14050 13245 ft 388 kts 333°
2026-05-07 19:50 -4.40900 15.13290 13860 ft 394 kts 358°
2026-05-07 19:51 -4.38199 15.13706 14676 ft 395 kts 22°
2026-05-07 19:51 -4.35913 15.15168 15455 ft 398 kts 45°
2026-05-07 19:51 -4.34108 15.17264 16050 ft 401 kts 51°
2026-05-07 19:51 -4.32207 15.19329 16617 ft 408 kts 43°
2026-05-07 19:52 -4.29967 15.21090 17477 ft 408 kts 32°
2026-05-07 19:52 -4.27316 15.22090 17990 ft 415 kts
2026-05-07 19:52 -4.24424 15.21941 18575 ft 424 kts 346°
2026-05-07 19:52 -4.21746 15.20685 19158 ft 430 kts 323°
2026-05-07 19:53 -4.19691 15.18501 19733 ft 434 kts 303°
2026-05-07 19:53 -4.18090 15.15937 20117 ft 437 kts 304°
2026-05-07 19:53 -4.16264 15.13467 20567 ft 444 kts 308°
2026-05-07 19:53 -4.14301 15.11055 21139 ft 447 kts 310°
2026-05-07 19:54 -4.12290 15.08658 21763 ft 450 kts 310°
2026-05-07 19:54 -4.10270 15.06253 22320 ft 453 kts 310°
2026-05-07 19:54 -4.08246 15.03821 22797 ft 458 kts 309°
2026-05-07 19:54 -4.06206 15.01345 23245 ft 462 kts 309°
2026-05-07 19:55 -4.04163 14.98844 23747 ft 466 kts 309°
2026-05-07 19:55 -4.02112 14.96319 24205 ft 469 kts 308°
2026-05-07 19:55 -4.00074 14.93802 24650 ft 472 kts 308°
2026-05-07 19:55 -3.97997 14.91232 25112 ft 475 kts 309°
2026-05-07 19:56 -3.95911 14.88654 25559 ft 478 kts 309°
2026-05-07 19:56 -3.93816 14.86066 25970 ft 481 kts 309°
2026-05-07 19:56 -3.91697 14.83449 26389 ft 483 kts 309°
2026-05-07 19:56 -3.89577 14.80834 26826 ft 485 kts 310°
2026-05-07 19:57 -3.87442 14.78207 27202 ft 488 kts 310°
2026-05-07 19:57 -3.85295 14.75555 27602 ft 491 kts 310°
2026-05-07 19:57 -3.83140 14.72892 27994 ft 492 kts 310°
2026-05-07 19:57 -3.80974 14.70219 28373 ft 495 kts 310°
2026-05-07 19:58 -3.78801 14.67536 28741 ft 497 kts 310°
2026-05-07 19:58 -3.76638 14.64865 29099 ft 499 kts 310°
2026-05-07 19:58 -3.74444 14.62159 29450 ft 502 kts 310°
2026-05-07 19:58 -3.72240 14.59443 29814 ft 503 kts 310°
2026-05-07 19:59 -3.70031 14.56720 30309 ft 502 kts 310°
2026-05-07 19:59 -3.67838 14.54014 30838 ft 499 kts 310°
2026-05-07 19:59 -3.65656 14.51323 31369 ft 497 kts 310°
2026-05-07 19:59 -3.63482 14.48643 31889 ft 495 kts 310°
2026-05-07 20:00 -3.61317 14.45975 32396 ft 493 kts 310°
2026-05-07 20:00 -3.59157 14.43311 32883 ft 491 kts 310°
2026-05-07 20:00 -3.57007 14.40661 33359 ft 490 kts 310°
2026-05-07 20:00 -3.54856 14.38009 33830 ft 488 kts 310°
2026-05-07 20:01 -3.50551 14.32704 33933 ft 491 kts 310°
2026-05-07 20:01 -3.46269 14.27428 33924 ft 486 kts 310°
2026-05-07 20:02 -3.42042 14.22222 33921 ft 485 kts 310°
2026-05-07 20:02 -3.37784 14.16978 33918 ft 485 kts 310°
2026-05-07 20:03 -3.33531 14.11740 33918 ft 485 kts 310°
2026-05-07 20:03 -3.29276 14.06496 33918 ft 485 kts 310°
2026-05-07 20:04 -3.25011 14.01247 33919 ft 486 kts 310°
2026-05-07 20:04 -3.20766 13.96022 33914 ft 487 kts 310°
2026-05-07 20:05 -3.16494 13.90763 33919 ft 487 kts 310°
2026-05-07 20:05 -3.12217 13.85497 33920 ft 487 kts 310°
2026-05-07 20:06 -3.08661 13.81122 33919 ft 487 kts 310°
2026-05-07 20:06 -3.04379 13.75857 33914 ft 487 kts 310°
2026-05-07 20:07 -3.00108 13.70602 33914 ft 486 kts 310°
2026-05-07 20:07 -2.95835 13.65346 33908 ft 486 kts 310°
2026-05-07 20:08 -2.91570 13.60099 33906 ft 485 kts 310°
2026-05-07 20:08 -2.87310 13.54860 33908 ft 485 kts 310°
2026-05-07 20:09 -2.83079 13.49657 33908 ft 485 kts 310°
2026-05-07 20:10 -2.76696 13.41810 33910 ft 484 kts 310°
2026-05-07 20:10 -2.72440 13.36577 33910 ft 485 kts 310°
2026-05-07 20:11 -2.68184 13.31346 33916 ft 485 kts 310°
2026-05-07 20:11 -2.63921 13.26109 33918 ft 485 kts 311°
2026-05-07 20:12 -2.59656 13.20865 33917 ft 486 kts 310°
2026-05-07 20:12 -2.55382 13.15616 33917 ft 486 kts 310°
2026-05-07 20:13 -2.51112 13.10369 33916 ft 486 kts 310°
2026-05-07 20:13 -2.46835 13.05115 33911 ft 487 kts 310°
2026-05-07 20:14 -2.42569 12.99846 33909 ft 488 kts 310°
2026-05-07 20:14 -2.38317 12.94566 33906 ft 488 kts 310°
2026-05-07 20:15 -2.34056 12.89274 33910 ft 488 kts 310°
2026-05-07 20:15 -2.29816 12.84014 33908 ft 488 kts 310°
2026-05-07 20:16 -2.25550 12.78725 33904 ft 489 kts 310°
2026-05-07 20:16 -2.21277 12.73429 33909 ft 489 kts 310°
2026-05-07 20:17 -2.16998 12.68122 33907 ft 490 kts 310°
2026-05-07 20:17 -2.12710 12.62807 33909 ft 491 kts 310°
2026-05-07 20:18 -2.08421 12.57490 33908 ft 492 kts 310°
2026-05-07 20:18 -2.04118 12.52158 33918 ft 493 kts 310°
2026-05-07 20:19 -1.99839 12.46850 33918 ft 493 kts 310°
2026-05-07 20:19 -1.95528 12.41513 33915 ft 494 kts 310°
2026-05-07 20:20 -1.91212 12.36170 33919 ft 494 kts 310°
2026-05-07 20:20 -1.86893 12.30812 33918 ft 495 kts 310°
2026-05-07 20:21 -1.82573 12.25459 33919 ft 495 kts 310°
2026-05-07 20:21 -1.78251 12.20105 33915 ft 495 kts 310°
2026-05-07 20:22 -1.73922 12.14742 33916 ft 495 kts 310°
2026-05-07 20:22 -1.69601 12.09389 33911 ft 494 kts 310°
2026-05-07 20:23 -1.65282 12.04051 33905 ft 494 kts 310°
2026-05-07 20:23 -1.60958 11.98711 33899 ft 493 kts 310°
2026-05-07 20:24 -1.56646 11.93382 33914 ft 493 kts 310°
2026-05-07 20:24 -1.52331 11.88048 33915 ft 494 kts 310°
2026-05-07 20:25 -1.48041 11.82746 33906 ft 494 kts 310°
2026-05-07 20:25 -1.43720 11.77406 33911 ft 494 kts 310°
2026-05-07 20:26 -1.39394 11.72059 33909 ft 494 kts 310°
2026-05-07 20:26 -1.35073 11.66713 33911 ft 493 kts 310°
2026-05-07 20:27 -1.30762 11.61375 33906 ft 494 kts 310°
2026-05-07 20:27 -1.26447 11.56033 33898 ft 493 kts 310°
2026-05-07 20:28 -1.22143 11.50701 33899 ft 493 kts 310°
2026-05-07 20:28 -1.17835 11.45364 33906 ft 493 kts 310°
2026-05-07 20:29 -1.13525 11.40030 33901 ft 492 kts 311°
2026-05-07 20:29 -1.09242 11.34730 33909 ft 493 kts 310°
2026-05-07 20:30 -1.04930 11.29391 33909 ft 493 kts 310°
2026-05-07 20:30 -1.00630 11.24068 33904 ft 493 kts 310°
2026-05-07 20:31 -0.96321 11.18735 33903 ft 492 kts 311°
2026-05-07 20:31 -0.92019 11.13410 33906 ft 492 kts 311°
2026-05-07 20:32 -0.87713 11.08081 33907 ft 493 kts 311°
2026-05-07 20:32 -0.83428 11.02777 33911 ft 492 kts 311°
2026-05-07 20:33 -0.79122 10.97445 33910 ft 493 kts 311°
2026-05-07 20:33 -0.74808 10.92108 33909 ft 493 kts 311°
2026-05-07 20:34 -0.70497 10.86773 33902 ft 493 kts 311°
2026-05-07 20:34 -0.66189 10.81444 33905 ft 493 kts 311°
2026-05-07 20:35 -0.61877 10.76111 33908 ft 493 kts 311°
2026-05-07 20:35 -0.57567 10.70776 33905 ft 493 kts 311°
2026-05-07 20:36 -0.53264 10.65449 33905 ft 493 kts 311°
2026-05-07 20:36 -0.48984 10.60155 33905 ft 492 kts 311°
2026-05-07 20:37 -0.44650 10.54796 33907 ft 493 kts 311°
2026-05-07 20:37 -0.40368 10.49496 33909 ft 493 kts 311°
2026-05-07 20:38 -0.36060 10.44163 33898 ft 493 kts 311°
2026-05-07 20:38 -0.31750 10.38829 33896 ft 493 kts 311°
2026-05-07 20:39 -0.27435 10.33490 33901 ft 493 kts 311°
2026-05-07 20:39 -0.23120 10.28158 33896 ft 494 kts 311°
2026-05-07 20:40 -0.18798 10.22817 33901 ft 494 kts 311°
2026-05-07 20:40 -0.14476 10.17472 33899 ft 494 kts 311°
2026-05-07 20:41 -0.10155 10.12127 33893 ft 494 kts 311°
2026-05-07 20:41 -0.05825 10.06772 33902 ft 494 kts 311°
2026-05-07 20:42 -0.01531 10.01461 33896 ft 494 kts 311°
2026-05-07 20:42 0.02790 9.96120 33898 ft 494 kts 311°
2026-05-07 20:43 0.07119 9.90766 33887 ft 494 kts 311°
2026-05-07 20:43 0.11441 9.85421 33893 ft 494 kts 311°
2026-05-07 20:44 0.15757 9.80083 33884 ft 494 kts 311°
2026-05-07 20:44 0.20048 9.74777 33896 ft 493 kts 311°
2026-05-07 20:45 0.24363 9.69439 33891 ft 493 kts 311°
2026-05-07 20:45 0.28676 9.64108 33885 ft 493 kts 311°
2026-05-07 20:46 0.32984 9.58778 33895 ft 493 kts 311°
2026-05-07 20:46 0.37295 9.53446 33885 ft 492 kts 311°
2026-05-07 20:47 0.41601 9.48118 33890 ft 492 kts 311°
2026-05-07 20:47 0.45874 9.42831 33887 ft 491 kts 311°
2026-05-07 20:48 0.49862 9.37282 33884 ft 494 kts 303°
2026-05-07 20:48 0.53351 9.31369 33894 ft 494 kts 303°
2026-05-07 20:49 0.56825 9.25442 33885 ft 494 kts 303°
2026-05-07 20:49 0.60326 9.19533 33888 ft 494 kts 303°
2026-05-07 20:50 0.63243 9.14641 33886 ft 493 kts 303°
2026-05-07 20:50 0.66756 9.08756 33888 ft 493 kts 303°
2026-05-07 20:51 0.70268 9.02869 33888 ft 493 kts 303°
2026-05-07 20:51 0.73777 8.96986 33887 ft 493 kts 303°
2026-05-07 20:52 0.77263 8.91139 33888 ft 493 kts 303°
2026-05-07 20:52 0.80774 8.85249 33894 ft 493 kts 303°
2026-05-07 20:53 0.84281 8.79366 33891 ft 493 kts 303°
2026-05-07 20:53 0.87787 8.73486 33886 ft 492 kts 303°
2026-05-07 20:54 0.91290 8.67609 33885 ft 492 kts 303°
2026-05-07 20:54 0.94790 8.61735 33886 ft 492 kts 303°
2026-05-07 20:55 0.98293 8.55858 33886 ft 492 kts 303°
2026-05-07 20:55 1.01769 8.50027 33887 ft 492 kts 303°
2026-05-07 20:56 1.05277 8.44140 33896 ft 491 kts 303°
2026-05-07 20:56 1.08770 8.38277 33888 ft 491 kts 303°
2026-05-07 20:57 1.12264 8.32410 33888 ft 491 kts 303°
2026-05-07 20:57 1.15758 8.26534 33885 ft 491 kts 303°
2026-05-07 20:58 1.19249 8.20665 33893 ft 491 kts 303°
2026-05-07 20:58 1.22707 8.14848 33889 ft 491 kts 303°
2026-05-07 20:59 1.26172 8.08965 33885 ft 491 kts 301°
2026-05-07 20:59 1.28931 8.02699 33894 ft 494 kts 294°
2026-05-07 21:00 1.31399 7.96296 33884 ft 494 kts 294°
2026-05-07 21:00 1.33896 7.89906 33894 ft 494 kts 294°
2026-05-07 21:01 1.36429 7.83516 33885 ft 494 kts 294°
2026-05-07 21:01 1.38964 7.77132 33885 ft 494 kts 294°
2026-05-07 21:02 1.41497 7.70745 33894 ft 494 kts 294°
2026-05-07 21:02 1.44014 7.64395 33893 ft 495 kts 294°
2026-05-07 21:03 1.46853 7.58159 33895 ft 492 kts 301°
2026-05-07 21:03 1.50153 7.52163 33890 ft 492 kts 301°
2026-05-07 21:04 1.53463 7.46167 33885 ft 492 kts 301°
2026-05-07 21:04 1.56741 7.40161 33885 ft 492 kts 301°
2026-05-07 21:05 1.60006 7.34145 33899 ft 492 kts 301°
2026-05-07 21:05 1.63251 7.28159 33881 ft 493 kts 301°
2026-05-07 21:06 1.66523 7.22127 33890 ft 492 kts 301°
2026-05-07 21:06 1.69787 7.16113 33895 ft 492 kts 301°
2026-05-07 21:07 1.73052 7.10097 33884 ft 492 kts 301°
2026-05-07 21:07 1.76317 7.04079 33892 ft 492 kts 300°
2026-05-07 21:08 1.79581 6.98061 33895 ft 493 kts 300°
2026-05-07 21:08 1.82847 6.92041 33896 ft 493 kts 300°
2026-05-07 21:09 1.86101 6.86040 33889 ft 494 kts 301°
2026-05-07 21:09 1.89377 6.80001 33900 ft 495 kts 301°
2026-05-07 21:10 1.92664 6.73936 33896 ft 496 kts 301°
2026-05-07 21:10 1.95950 6.67865 33895 ft 497 kts 301°
2026-05-07 21:11 1.99223 6.61785 33900 ft 497 kts 301°
2026-05-07 21:11 2.04186 6.52739 33897 ft 496 kts 302°
2026-05-07 21:12 2.07593 6.46736 33901 ft 496 kts 302°
2026-05-07 21:12 2.10994 6.40742 33893 ft 495 kts 302°
2026-05-07 21:13 2.14378 6.34746 33904 ft 495 kts 302°
2026-05-07 21:13 2.17752 6.28751 33910 ft 495 kts 302°
2026-05-07 21:14 2.21128 6.22753 33907 ft 495 kts 302°
2026-05-07 21:14 2.24505 6.16756 33909 ft 495 kts 302°
2026-05-07 21:15 2.27885 6.10750 33909 ft 495 kts 302°
2026-05-07 21:15 2.31263 6.04748 33910 ft 495 kts 302°
2026-05-07 21:16 2.34641 5.98748 33908 ft 495 kts 302°
2026-05-07 21:16 2.38001 5.92776 33909 ft 496 kts 302°
2026-05-07 21:17 2.41384 5.86763 33909 ft 496 kts 302°
2026-05-07 21:17 2.44766 5.80754 33907 ft 495 kts 302°
2026-05-07 21:18 2.48146 5.74743 33908 ft 496 kts 302°
2026-05-07 21:18 2.51534 5.68721 33920 ft 496 kts 302°
2026-05-07 21:19 2.54920 5.62698 33928 ft 497 kts 301°
2026-05-07 21:19 2.57959 5.57295 33926 ft 497 kts 301°
2026-05-07 21:20 2.58718 5.55945 33925 ft 497 kts 301°
2026-05-07 21:20 2.61288 5.51373 33927 ft 497 kts 301°
2026-05-07 21:21 2.64678 5.45342 33927 ft 498 kts 301°
2026-05-07 21:21 2.68074 5.39301 33928 ft 498 kts 301°
2026-05-07 21:22 2.71473 5.33252 33942 ft 498 kts 301°
2026-05-07 21:22 2.74875 5.27200 33935 ft 499 kts 301°
2026-05-07 21:23 2.78276 5.21145 33935 ft 499 kts 301°
2026-05-07 21:23 2.81681 5.15082 33935 ft 500 kts 301°
2026-05-07 21:24 2.85088 5.09019 33934 ft 500 kts 301°
2026-05-07 21:24 2.88482 5.02976 33936 ft 500 kts 301°
2026-05-07 21:25 2.91889 4.96905 33934 ft 501 kts 301°
2026-05-07 21:25 2.95303 4.90825 33934 ft 501 kts 301°
2026-05-07 21:26 2.98721 4.84731 33935 ft 501 kts 301°
2026-05-07 21:26 3.02132 4.78653 33934 ft 501 kts 301°
2026-05-07 21:27 3.05529 4.72604 33935 ft 501 kts 301°
2026-05-07 21:27 3.08941 4.66525 33936 ft 501 kts 301°
2026-05-07 21:28 3.12354 4.60438 33937 ft 501 kts 301°
2026-05-07 21:28 3.15771 4.54348 33935 ft 502 kts 301°
2026-05-07 21:29 3.19185 4.48257 33935 ft 502 kts 301°
2026-05-07 21:29 3.22601 4.42167 33950 ft 502 kts 301°
2026-05-07 21:30 3.26016 4.36072 33946 ft 502 kts 301°
2026-05-07 21:30 3.29432 4.29971 33936 ft 502 kts 300°
2026-05-07 21:31 3.32851 4.23879 33951 ft 502 kts 300°
2026-05-07 21:31 3.36254 4.17808 33951 ft 503 kts 300°
2026-05-07 21:32 3.39669 4.11706 33952 ft 503 kts 300°
2026-05-07 21:32 3.43094 4.05593 33939 ft 503 kts 300°
2026-05-07 21:33 3.46521 3.99474 33947 ft 503 kts 300°
2026-05-07 21:33 3.49945 3.93359 33953 ft 504 kts 300°
2026-05-07 21:34 3.53372 3.87234 33935 ft 504 kts 300°
2026-05-07 21:34 3.56796 3.81113 33936 ft 504 kts 300°
2026-05-07 21:35 3.60199 3.75032 33951 ft 504 kts 300°
2026-05-07 21:35 3.63625 3.68908 33951 ft 504 kts 300°
2026-05-07 21:36 3.67053 3.62775 33949 ft 504 kts 300°
2026-05-07 21:36 3.70482 3.56645 33946 ft 504 kts 300°
2026-05-07 21:37 3.73329 3.51555 33948 ft 503 kts 300°
2026-05-07 21:37 3.76749 3.45436 33942 ft 503 kts 300°
2026-05-07 21:38 3.80723 3.38325 33925 ft 503 kts 300°
2026-05-07 21:38 3.83590 3.33197 33917 ft 504 kts 300°
2026-05-07 21:39 3.87006 3.27080 33902 ft 504 kts 300°
2026-05-07 21:39 3.90424 3.20957 33908 ft 503 kts 300°
2026-05-07 21:40 3.93815 3.14882 33907 ft 502 kts 300°
2026-05-07 21:40 3.97223 3.08782 33905 ft 502 kts 301°
2026-05-07 21:41 4.01331 3.03164 33906 ft 499 kts 314°
2026-05-07 21:41 4.06422 2.98483 33907 ft 496 kts 323°
2026-05-07 21:42 4.11833 2.94206 33908 ft 495 kts 323°
2026-05-07 21:42 4.17238 2.89925 33906 ft 495 kts 323°
2026-05-07 21:43 4.22618 2.85615 33909 ft 495 kts 323°
2026-05-07 21:43 4.27989 2.81291 33907 ft 496 kts 322°
2026-05-07 21:44 4.33368 2.76956 33906 ft 496 kts 322°
2026-05-07 21:44 4.38743 2.72625 33910 ft 496 kts 322°
2026-05-07 21:45 4.44117 2.68297 33909 ft 495 kts 322°
2026-05-07 21:45 4.49477 2.63980 33903 ft 494 kts 322°
2026-05-07 21:46 4.54840 2.59660 33910 ft 494 kts 322°
2026-05-07 21:46 4.60171 2.55364 33911 ft 494 kts 322°
2026-05-07 21:47 4.65528 2.51044 33906 ft 494 kts 322°
2026-05-07 21:47 4.70886 2.46723 33897 ft 494 kts 322°
2026-05-07 21:48 4.76241 2.42406 33897 ft 494 kts 322°
2026-05-07 21:48 4.81605 2.38081 33901 ft 494 kts 322°
2026-05-07 21:49 4.86957 2.33763 33899 ft 494 kts 322°
2026-05-07 21:49 4.92305 2.29447 33886 ft 494 kts 322°
2026-05-07 21:50 4.97660 2.25125 33877 ft 493 kts 322°
2026-05-07 21:50 5.02998 2.20814 33878 ft 492 kts 322°
2026-05-07 21:51 5.08332 2.16505 33878 ft 492 kts 322°
2026-05-07 21:51 5.13615 2.12226 33878 ft 491 kts 322°
2026-05-07 21:52 5.18929 2.07920 33880 ft 491 kts 322°
2026-05-07 21:52 5.24244 2.03614 33878 ft 490 kts 322°
2026-05-07 21:53 5.29549 1.99315 33880 ft 490 kts 322°
2026-05-07 21:53 5.34848 1.95019 33883 ft 489 kts 322°
2026-05-07 21:54 5.40148 1.90721 33891 ft 489 kts 322°
2026-05-07 21:54 5.45441 1.86428 33893 ft 489 kts 322°
2026-05-07 21:55 5.50535 1.82001 33873 ft 484 kts 313°
2026-05-07 21:55 5.52622 1.79416 33872 ft 469 kts 306°
2026-05-07 21:55 5.54363 1.76693 33643 ft 460 kts 299°
2026-05-07 21:56 5.55747 1.73810 33197 ft 456 kts 294°
2026-05-07 21:56 5.57032 1.70913 32751 ft 452 kts 294°
2026-05-07 21:56 5.58299 1.68035 32294 ft 449 kts 294°
2026-05-07 21:56 5.59565 1.65173 31836 ft 446 kts 294°
2026-05-07 21:57 5.60827 1.62340 31385 ft 443 kts 295°
2026-05-07 21:57 5.62089 1.59529 30932 ft 440 kts 295°
2026-05-07 21:57 5.63344 1.56742 30481 ft 437 kts 295°
2026-05-07 21:57 5.64599 1.53963 30035 ft 435 kts 295°
2026-05-07 21:58 5.65843 1.51213 29578 ft 432 kts 295°
2026-05-07 21:58 5.67081 1.48475 29124 ft 429 kts 295°
2026-05-07 21:58 5.68308 1.45760 28669 ft 427 kts 295°
2026-05-07 21:58 5.69534 1.43050 28221 ft 424 kts 295°
2026-05-07 21:59 5.70734 1.40396 27778 ft 421 kts 295°
2026-05-07 21:59 5.71943 1.37723 27341 ft 419 kts 295°
2026-05-07 21:59 5.73143 1.35067 26906 ft 417 kts 295°
2026-05-07 21:59 5.74340 1.32418 26464 ft 415 kts 295°
2026-05-07 22:00 5.75526 1.29790 26025 ft 412 kts 295°
2026-05-07 22:00 5.76711 1.27166 25591 ft 410 kts 295°
2026-05-07 22:00 5.77890 1.24557 25160 ft 408 kts 296°
2026-05-07 22:00 5.79060 1.21965 24733 ft 406 kts 296°
2026-05-07 22:01 5.80224 1.19385 24302 ft 404 kts 296°
2026-05-07 22:01 5.81383 1.16817 23889 ft 403 kts 296°
2026-05-07 22:01 5.82524 1.14289 23475 ft 401 kts 296°
2026-05-07 22:01 5.83672 1.11746 23055 ft 399 kts 296°
2026-05-07 22:02 5.84814 1.09213 22634 ft 397 kts 296°
2026-05-07 22:02 5.85953 1.06690 22199 ft 395 kts 296°
2026-05-07 22:02 5.87082 1.04186 21795 ft 392 kts 296°
2026-05-07 22:02 5.88207 1.01692 21378 ft 390 kts 296°
2026-05-07 22:03 5.89323 0.99216 20959 ft 388 kts 296°
2026-05-07 22:03 5.90432 0.96754 20544 ft 386 kts 296°
2026-05-07 22:03 5.91538 0.94301 20107 ft 383 kts 295°
2026-05-07 22:03 5.92620 0.91900 19713 ft 381 kts 296°
2026-05-07 22:04 5.93722 0.89452 19295 ft 378 kts 296°
2026-05-07 22:04 5.94788 0.87087 18889 ft 376 kts 296°
2026-05-07 22:04 5.95876 0.84674 18474 ft 373 kts 296°
2026-05-07 22:04 5.96939 0.82313 18067 ft 370 kts 295°
2026-05-07 22:05 5.97973 0.79994 17653 ft 365 kts 292°
2026-05-07 22:05 5.98523 0.77526 17241 ft 362 kts 270°
2026-05-07 22:05 5.98251 0.75040 16863 ft 355 kts 260°
2026-05-07 22:05 5.97833 0.72604 16482 ft 352 kts 260°
2026-05-07 22:06 5.97413 0.70182 16086 ft 350 kts 260°
2026-05-07 22:06 5.97000 0.67778 15704 ft 348 kts 260°
2026-05-07 22:06 5.96598 0.65386 15322 ft 345 kts 260°
2026-05-07 22:06 5.96204 0.63019 14937 ft 343 kts 260°
2026-05-07 22:07 5.95815 0.60663 14555 ft 341 kts 260°
2026-05-07 22:07 5.95430 0.58324 14179 ft 338 kts 260°
2026-05-07 22:07 5.95051 0.55999 13795 ft 336 kts 260°
2026-05-07 22:07 5.94674 0.53694 13434 ft 334 kts 260°
2026-05-07 22:08 5.94299 0.51401 13061 ft 332 kts 260°
2026-05-07 22:08 5.93923 0.49104 12701 ft 333 kts 260°
2026-05-07 22:08 5.93545 0.46786 12336 ft 340 kts 260°
2026-05-07 22:08 5.93156 0.44414 11958 ft 348 kts 259°
2026-05-07 22:09 5.92768 0.42040 11571 ft 350 kts 260°
2026-05-07 22:09 5.92375 0.39636 11174 ft 347 kts 260°
2026-05-07 22:09 5.91986 0.37250 10779 ft 345 kts 260°
2026-05-07 22:09 5.91599 0.34883 10394 ft 342 kts 260°
2026-05-07 22:10 5.91219 0.32553 10141 ft 333 kts 261°
2026-05-07 22:10 5.90849 0.30293 9995 ft 323 kts 261°
2026-05-07 22:10 5.90491 0.28102 9769 ft 315 kts 261°
2026-05-07 22:10 5.90138 0.25945 9429 ft 311 kts 261°
2026-05-07 22:11 5.89790 0.23818 9098 ft 306 kts 261°
2026-05-07 22:11 5.89446 0.21715 8768 ft 302 kts 261°
2026-05-07 22:11 5.89108 0.19644 8440 ft 298 kts 261°
2026-05-07 22:11 5.88774 0.17602 8118 ft 294 kts 261°
2026-05-07 22:12 5.88444 0.15590 7800 ft 290 kts 261°
2026-05-07 22:12 5.88121 0.13611 7486 ft 285 kts 261°
2026-05-07 22:12 5.87802 0.11657 7179 ft 281 kts 261°
2026-05-07 22:12 5.87489 0.09737 6876 ft 276 kts 261°
2026-05-07 22:13 5.87180 0.07850 6578 ft 271 kts 261°
2026-05-07 22:13 5.86877 0.05994 6283 ft 266 kts 260°
2026-05-07 22:13 5.86582 0.04201 6002 ft 261 kts 260°
2026-05-07 22:13 5.86287 0.02399 5722 ft 262 kts 260°
2026-05-07 22:14 5.85987 0.00571 5455 ft 268 kts 260°
2026-05-07 22:14 5.85683 -0.01285 5162 ft 270 kts 259°
2026-05-07 22:14 5.85381 -0.03135 4853 ft 266 kts 259°
2026-05-07 22:14 5.85074 -0.04946 4536 ft 257 kts 255°
2026-05-07 22:15 5.84295 -0.06505 4239 ft 250 kts 225°
2026-05-07 22:15 5.82908 -0.07539 3975 ft 249 kts 206°
2026-05-07 22:15 5.81317 -0.08237 3765 ft 249 kts 202°
2026-05-07 22:15 5.79734 -0.08868 3619 ft 240 kts 201°
2026-05-07 22:16 5.78233 -0.09468 3550 ft 225 kts 202°
2026-05-07 22:16 5.76824 -0.10033 3343 ft 217 kts 202°
2026-05-07 22:16 5.75452 -0.10586 3113 ft 209 kts 202°
2026-05-07 22:16 5.74121 -0.11129 2852 ft 202 kts 202°
2026-05-07 22:17 5.72834 -0.11643 2569 ft 196 kts 202°
2026-05-07 22:17 5.71601 -0.12143 2352 ft 187 kts 202°
2026-05-07 22:17 5.70414 -0.12632 2076 ft 179 kts 202°
2026-05-07 22:17 5.69312 -0.13089 1822 ft 164 kts 202°
2026-05-07 22:18 5.68308 -0.13503 1603 ft 150 kts 202°
2026-05-07 22:18 5.66411 -0.14289 1250 ft 140 kts 202°
2026-05-07 22:18 5.65511 -0.14660 1079 ft 142 kts 202°
2026-05-07 22:19 5.64593 -0.15040 874 ft 143 kts 202°
2026-05-07 22:19 5.63680 -0.15418 675 ft 141 kts 202°
2026-05-07 22:19 5.62769 -0.15790 477 ft 144 kts 202°
2026-05-07 22:19 5.61850 -0.16174 303 ft 142 kts 202°
2026-05-07 22:20 5.60966 -0.16545 226 ft 127 kts 202°
2026-05-07 22:20 5.60351 -0.16792 219 ft 62 kts 202°
2026-05-07 22:20 5.60071 -0.16909 217 ft 40 kts 203°
2026-05-07 22:20 5.59905 -0.17030 211 ft 21 kts 228°
2026-05-07 22:21 5.59841 -0.17113 211 ft 10 kts 233°
2026-05-07 22:21 5.59826 -0.17154 220 ft 6 kts 266°
2026-05-07 22:21 5.59835 -0.17192 218 ft 5 kts 291°
2026-05-07 22:21 5.59848 -0.17227 214 ft 5 kts 290°
2026-05-07 22:22 5.59862 -0.17261 216 ft 5 kts 292°
2026-05-07 22:22 5.59875 -0.17294 215 ft 4 kts 292°
2026-05-07 22:22 5.59882 -0.17311 218 ft 0 kts 292°